Wind_Speed
37 34 31 29 27 26 26 27 27 26 27 29 28 26 25 23 22 20 20 19 19 18 18 17 17 16 16 16 16 15 15 14 12 13 14 14 13 12
36 33 30 27 25 25 26 27 26 25 25 27 27 25 23 22 21 20 19 20 19 18 18 17 17 16 16 15 14 14 14 14 14 14 13 12 11 11
32 27 25 24 24 25 25 25 25 25 24 25 25 24 22 20 20 20 19 20 20 19 17 16 16 16 15 14 14 14 14 14 13 12 11 10 10 10
26 24 23 22 23 23 23 23 24 25 24 23 23 23 22 21 20 20 20 21 21 19 18 16 15 15 15 15 15 14 14 13 12 11 11 11 11 11
21 21 22 23 24 24 24 24 25 25 24 23 23 23 23 22 22 22 21 22 21 19 19 18 17 17 17 19 18 16 15 14 13 12 11 12 12 11
23 25 26 27 27 27 26 26 27 26 25 24 24 25 24 23 23 24 23 23 22 20 19 19 19 20 21 22 21 20 18 17 15 14 13 12 12 12
26 27 27 28 28 28 28 28 28 28 27 26 26 26 25 24 24 24 24 24 24 22 19 21 23 23 24 25 25 24 22 21 19 18 16 16 16 16
32 32 31 31 31 31 30 29 29 29 29 29 28 27 26 24 24 25 25 25 25 24 22 21 23 26 27 27 27 27 26 24 23 21 20 19 18 19
39 38 37 36 35 33 32 31 31 31 31 30 29 27 26 25 24 25 26 26 26 26 25 23 23 25 26 27 27 26 26 25 24 22 20 19 18 18
43 43 42 40 37 35 33 32 32 32 32 32 30 29 28 27 26 26 27 28 28 27 26 24 24 24 23 25 25 24 25 24 23 22 20 19 19 19
43 43 42 41 38 36 35 34 34 34 34 35 34 33 32 31 30 29 29 29 30 30 30 29 27 25 23 24 26 27 27 26 25 24 23 22 21 20
38 38 38 38 38 37 37 36 36 36 36 37 36 36 35 34 33 33 32 33 33 33 33 30 28 27 25 25 25 26 27 26 26 25 24 23 22 21
32 33 35 37 38 38 38 39 39 38 38 37 37 36 35 33 32 33 33 33 34 34 34 32 30 29 28 26 24 23 23 24 24 23 23 22 21 20
26 28 30 31 33 36 37 39 40 40 40 39 38 37 37 36 35 34 33 33 34 34 34 34 32 32 32 31 27 23 21 23 23 23 23 22 22 20
24 24 25 26 28 30 32 34 37 38 40 40 40 39 37 37 36 34 33 33 33 33 33 33 33 33 32 32 30 27 25 24 23 23 24 24 22 21
27 27 27 27 26 26 27 28 31 33 35 36 38 39 39 38 38 36 35 34 33 33 33 33 33 34 33 33 33 33 31 28 27 27 27 26 24 23
32 32 32 31 30 29 29 29 28 28 28 28 29 31 33 35 36 37 37 37 36 35 35 35 35 34 34 34 34 35 35 33 31 30 30 29 28 27
37 37 37 37 36 36 35 34 33 33 32 31 29 28 27 28 28 30 33 35 37 37 36 36 37 37 36 36 36 36 36 35 34 33 32 31 30 29
39 40 41 41 41 41 41 41 40 39 38 37 36 34 33 31 29 27 27 29 32 34 34 35 37 38 38 38 37 36 35 35 34 33 33 32 30 30
38 39 41 42 43 43 44 45 45 45 44 43 42 40 39 38 36 33 30 28 27 28 29 31 33 35 37 38 38 37 37 35 34 34 33 33 31 30
35 37 39 40 42 43 44 45 45 47 47 48 48 47 45 44 43 41 38 35 32 29 28 29 30 31 33 34 34 33 35 36 34 32 32 32 31 29
36 37 37 38 39 40 41 42 43 44 46 48 49 49 48 48 47 47 45 43 41 38 34 32 31 31 32 32 31 30 30 32 31 30 30 31 30 29
38 37 37 37 38 38 38 39 40 42 43 44 45 46 47 48 49 50 50 49 48 45 42 38 36 34 32 32 32 31 30 29 30 30 30 30 30 29
Wind_Direction
255 258 258 258 261 266 272 277 281 283 285 288 292 293 294 294 292 291 293 293 294 291 285 279 274 271 268 268 265 259 252 238 213 189 178 176 180 186
253 254 254 256 261 268 273 276 278 280 279 283 287 290 292 292 288 286 288 289 289 288 284 277 270 266 262 259 250 240 230 213 195 184 181 186 195 205
251 252 256 260 264 267 270 272 275 278 278 280 284 287 289 287 285 282 283 286 285 282 280 273 267 260 249 241 230 221 210 201 194 191 195 205 216 224
255 258 263 265 267 268 269 270 273 277 278 280 283 285 286 285 283 281 281 282 284 277 272 267 260 249 236 223 214 208 204 202 201 204 212 223 232 237
267 267 267 268 269 270 270 270 273 275 278 280 282 283 282 282 280 279 282 280 280 274 266 259 252 243 230 217 210 208 208 209 211 217 224 233 240 245
273 272 271 272 272 272 270 270 272 273 276 279 281 281 281 280 277 276 278 277 274 273 267 257 249 242 231 220 215 214 215 216 218 223 231 240 247 253
276 276 275 274 274 272 271 270 270 270 271 274 278 278 278 277 276 274 274 273 273 268 271 264 251 240 232 225 220 219 220 221 224 230 239 248 256 261
282 281 281 279 277 275 273 270 269 267 268 270 272 273 273 272 270 270 271 271 271 268 267 272 264 245 236 229 226 224 224 226 230 236 245 254 261 265
283 283 282 282 281 279 275 272 269 265 264 266 267 268 268 266 266 265 266 267 268 269 268 269 268 257 249 239 233 226 225 228 233 240 250 257 262 267
282 282 282 282 282 280 276 273 269 264 262 262 262 263 263 263 262 261 262 264 266 267 269 268 267 260 257 250 243 234 229 230 235 243 250 256 260 266
281 282 281 280 279 276 272 270 267 264 261 260 260 261 262 262 262 262 262 264 266 267 269 272 272 264 255 250 247 243 237 235 236 240 245 250 256 263
279 277 275 273 271 268 267 265 263 262 261 260 260 262 262 263 264 263 262 263 264 267 269 271 270 265 254 248 251 246 237 234 233 236 241 247 254 260
277 273 270 268 267 265 264 262 261 260 259 259 259 260 261 261 261 261 261 262 263 265 266 265 264 258 252 246 247 244 233 227 226 228 236 245 252 258
281 277 274 271 269 267 265 264 262 261 259 258 258 258 257 257 257 258 259 260 261 262 263 262 259 256 252 249 249 245 236 228 227 229 236 244 250 255
283 282 280 278 276 274 270 266 264 262 259 258 257 257 257 257 256 256 257 258 259 259 259 258 255 252 250 250 248 245 241 237 233 233 237 242 248 253
280 279 280 279 279 279 279 276 272 268 264 260 257 256 256 256 256 256 256 256 256 256 255 252 249 246 245 245 245 245 244 242 240 238 239 243 247 253
278 277 277 276 276 278 278 278 277 274 271 267 263 260 258 256 256 256 256 256 256 254 253 250 248 244 243 244 245 246 246 247 248 247 246 246 247 250
279 278 277 275 275 274 274 274 274 273 272 272 271 269 267 265 262 259 258 257 256 255 253 250 248 246 244 245 245 247 247 248 249 248 248 249 247 247
283 283 281 280 277 275 273 272 271 269 268 267 267 268 269 269 269 266 263 260 258 256 253 250 249 247 245 243 244 245 247 248 249 249 249 248 247 246
289 288 285 283 280 278 275 273 271 269 266 264 263 262 262 263 264 264 264 263 260 258 256 253 251 249 246 245 243 243 243 245 246 248 249 249 245 242
296 293 290 286 283 280 276 274 272 270 267 265 263 260 258 258 259 259 260 260 260 260 258 255 252 248 247 245 243 241 243 244 245 246 247 247 245 241
303 299 295 291 287 283 279 275 272 269 267 265 263 261 258 256 255 255 255 256 257 257 257 256 254 251 248 246 244 242 241 244 245 244 244 244 244 242
309 305 301 296 292 287 283 278 274 270 268 266 264 261 258 256 254 253 252 252 253 254 254 254 254 252 250 249 247 246 241 241 245 246 244 244 244 243
Height
5806 5807 5807 5808 5809 5811 5812 5812 5813 5813 5812 5809 5809 5809 5809 5808 5807 5807 5807 5807 5806 5806 5805 5805 5805 5804 5804 5804 5804 5804 5805 5805 5805 5806 5807 5809 5811 5813
5797 5798 5798 5800 5802 5803 5804 5804 5804 5805 5805 5803 5802 5802 5802 5802 5801 5802 5802 5801 5801 5801 5800 5800 5800 5800 5800 5800 5800 5801 5802 5803 5804 5805 5806 5808 5809 5811
5787 5788 5789 5791 5793 5795 5796 5797 5797 5797 5798 5797 5796 5795 5795 5796 5796 5797 5797 5797 5796 5796 5796 5795 5795 5796 5796 5797 5797 5798 5800 5802 5803 5804 5805 5806 5808 5809
5778 5781 5782 5784 5786 5788 5789 5790 5790 5790 5791 5791 5790 5789 5789 5790 5791 5791 5792 5792 5792 5791 5791 5791 5791 5792 5793 5794 5795 5796 5798 5799 5801 5802 5803 5804 5805 5807
5772 5774 5776 5778 5779 5781 5782 5783 5783 5783 5783 5784 5783 5782 5783 5784 5785 5786 5787 5787 5787 5787 5787 5787 5787 5788 5789 5791 5792 5793 5795 5796 5798 5799 5800 5801 5803 5804
5766 5768 5769 5771 5772 5773 5774 5775 5775 5776 5776 5776 5777 5776 5776 5777 5778 5779 5781 5782 5782 5782 5782 5782 5783 5783 5785 5786 5788 5789 5791 5792 5794 5795 5797 5798 5799 5800
5760 5761 5762 5763 5764 5765 5766 5767 5767 5768 5768 5769 5769 5769 5769 5770 5771 5773 5774 5775 5776 5777 5777 5777 5777 5778 5779 5781 5782 5784 5786 5788 5789 5791 5792 5794 5795 5795
5752 5752 5753 5754 5755 5756 5757 5757 5758 5759 5760 5761 5761 5762 5763 5763 5764 5765 5767 5769 5770 5771 5772 5771 5771 5771 5772 5774 5776 5778 5780 5782 5784 5785 5787 5788 5789 5789
5741 5742 5743 5744 5745 5746 5747 5748 5749 5750 5751 5752 5752 5753 5754 5755 5756 5757 5759 5761 5763 5764 5765 5765 5765 5765 5766 5767 5768 5771 5773 5775 5777 5779 5781 5782 5783 5783
5730 5731 5732 5733 5734 5735 5736 5738 5739 5740 5741 5742 5743 5744 5745 5746 5748 5750 5751 5753 5755 5756 5757 5758 5758 5759 5759 5760 5761 5763 5766 5768 5771 5773 5774 5776 5777 5777
5719 5720 5721 5722 5723 5724 5726 5727 5728 5730 5730 5732 5733 5734 5735 5737 5739 5741 5743 5745 5746 5748 5749 5750 5751 5752 5752 5753 5753 5755 5758 5760 5763 5766 5768 5769 5770 5771
5709 5710 5710 5711 5712 5714 5715 5716 5718 5719 5720 5721 5723 5725 5726 5727 5729 5731 5733 5735 5737 5739 5741 5743 5744 5745 5746 5746 5745 5746 5749 5752 5755 5758 5761 5763 5764 5764
5700 5700 5700 5700 5701 5703 5704 5705 5706 5708 5709 5711 5713 5715 5716 5718 5719 5720 5722 5725 5727 5729 5731 5734 5736 5737 5738 5739 5738 5739 5741 5744 5747 5750 5753 5755 5756 5757
5691 5691 5691 5691 5691 5692 5693 5694 5696 5697 5699 5700 5702 5704 5706 5707 5708 5710 5712 5714 5717 5719 5722 5724 5727 5728 5730 5731 5732 5732 5734 5737 5740 5743 5745 5748 5749 5750
5684 5683 5683 5682 5682 5682 5682 5683 5684 5686 5687 5689 5690 5692 5694 5695 5697 5699 5701 5703 5706 5709 5711 5714 5716 5718 5720 5722 5724 5726 5728 5730 5732 5734 5737 5740 5742 5743
5676 5676 5675 5674 5674 5674 5674 5673 5674 5674 5675 5677 5678 5679 5681 5683 5685 5687 5690 5692 5695 5698 5701 5703 5705 5708 5710 5712 5714 5717 5719 5722 5724 5726 5729 5731 5734 5735
5667 5667 5666 5666 5665 5665 5665 5665 5665 5665 5666 5666 5667 5668 5669 5671 5673 5675 5677 5680 5683 5687 5689 5692 5694 5696 5699 5702 5704 5706 5709 5712 5715 5717 5720 5723 5725 5727
5657 5656 5656 5655 5655 5655 5655 5655 5655 5655 5656 5657 5657 5658 5659 5660 5662 5663 5665 5667 5670 5673 5677 5680 5682 5685 5688 5691 5694 5696 5699 5703 5705 5708 5711 5714 5717 5718
5646 5645 5644 5643 5642 5642 5642 5642 5643 5644 5645 5646 5647 5648 5650 5651 5652 5654 5655 5657 5658 5661 5664 5667 5670 5673 5677 5680 5683 5686 5689 5692 5696 5698 5701 5704 5707 5709
5635 5633 5631 5629 5628 5627 5627 5627 5628 5629 5630 5632 5634 5636 5638 5640 5642 5644 5646 5648 5649 5651 5653 5656 5659 5662 5665 5669 5672 5675 5678 5681 5685 5688 5690 5693 5697 5699
5624 5621 5618 5615 5613 5612 5611 5612 5612 5612 5614 5615 5618 5621 5624 5627 5630 5633 5635 5637 5640 5642 5644 5647 5649 5651 5654 5658 5662 5664 5666 5670 5673 5677 5680 5683 5686 5689
5612 5608 5604 5601 5598 5597 5596 5596 5596 5596 5596 5598 5600 5604 5608 5612 5614 5618 5621 5624 5627 5630 5633 5636 5639 5642 5645 5647 5650 5654 5657 5659 5662 5666 5670 5673 5675 5679
5599 5595 5591 5588 5585 5582 5581 5580 5579 5580 5580 5582 5584 5586 5589 5593 5596 5600 5604 5608 5612 5616 5620 5624 5628 5631 5634 5637 5639 5643 5647 5650 5652 5656 5659 5662 5665 5668